Location: Shenandoah County Park
(38.9356°N, 78.4524°W)
Time: 16:14:03
(UTC-04:00)

SR - All Passes

Search period start: 16 July 2024 00:00
Search period end: 26 July 2024 00:00
Orbit: 580 x 857 km, 66.7° (Epoch: 15 July)

Date Brightness Start Highest point End Pass type
(mag) Time Alt. Az. Time Alt. Az. Time Alt. Az.
16 Jul - 04:02:59 10° SSE 04:06:00 17° ESE 04:08:54 10° ENE visible
16 Jul - 05:42:57 10° SW 05:47:30 47° WNW 05:51:46 10° NNE daylight
16 Jul - 14:23:13 10° NNW 14:27:32 83° ENE 14:32:03 10° SSE daylight
17 Jul - 04:50:17 10° SSW 04:55:00 74° ESE 04:59:27 10° NNE visible
17 Jul - 06:35:03 10° WNW 06:37:15 13° NW 06:39:24 10° NNW daylight
17 Jul - 13:31:03 10° N 13:35:00 34° NE 13:39:05 10° ESE daylight
17 Jul - 15:13:18 10° WNW 15:16:35 21° WSW 15:20:00 10° SSW daylight
18 Jul - 03:58:32 10° S 04:02:40 30° ESE 04:06:34 10° NE visible
18 Jul - 05:40:29 10° WSW 05:44:26 27° NW 05:48:12 10° N daylight
18 Jul - 12:39:30 10° N 12:42:15 16° NE 12:45:03 10° E daylight
18 Jul - 14:20:06 10° NW 14:24:18 52° WSW 14:28:43 10° S daylight
19 Jul - 03:08:28 10° SE 03:10:27 13° ESE 03:12:25 10° E visible
19 Jul - 04:47:10 10° SW 04:51:49 61° WNW 04:56:12 10° NNE visible
19 Jul - 13:27:35 10° NNW 13:31:52 63° ENE 13:36:21 10° SE daylight
19 Jul - 15:11:47 10° W 15:13:11 11° WSW 15:14:36 10° SW daylight
20 Jul - 03:54:45 10° SSW 03:59:22 55° ESE 04:03:42 10° NE visible
20 Jul - 05:38:33 10° W 05:41:27 16° NW 05:44:16 10° N daylight
20 Jul - 12:35:34 10° N 12:39:16 27° NE 12:43:05 10° ESE daylight
20 Jul - 14:17:17 10° NW 14:20:59 28° WSW 14:24:52 10° S daylight
21 Jul - 03:03:22 10° SSE 03:07:03 23° ESE 03:10:34 10° ENE visible
21 Jul - 04:44:28 10° WSW 04:48:42 34° NW 04:52:42 10° N visible
21 Jul - 11:44:22 10° NNE 11:46:26 13° NE 11:48:31 10° ENE daylight
21 Jul - 13:24:20 10° NNW 13:28:39 70° WSW 13:33:11 10° SSE daylight
22 Jul - 03:51:26 10° SSW 03:56:08 80° WNW 04:00:32 10° NNE visible
22 Jul - 12:31:58 10° NNW 12:36:09 47° ENE 12:40:32 10° SE daylight
22 Jul - 14:15:01 10° WNW 14:17:35 15° WSW 14:20:14 10° SW daylight
23 Jul - 02:59:18 10° S 03:03:42 41° ESE 03:07:52 10° NE visible
23 Jul - 04:42:14 10° W 04:45:38 20° NW 04:48:55 10° N visible
23 Jul - 11:40:06 10° N 11:43:28 22° NE 11:46:56 10° ESE daylight
23 Jul - 13:21:19 10° NW 13:25:20 37° WSW 13:29:33 10° S daylight
24 Jul - 02:08:21 10° SSE 02:11:25 17° ESE 02:14:23 10° ENE visible
24 Jul - 03:48:30 10° SW 03:52:55 44° WNW 03:57:06 10° NNE visible
24 Jul - 10:49:44 10° NNE 10:50:32 10° NE 10:51:20 10° NE daylight
24 Jul - 12:28:34 10° NNW 12:32:56 88° ENE 12:37:31 10° SSE daylight
25 Jul - 02:55:44 10° SSW 03:00:23 78° ESE 03:04:47 10° NNE visible
25 Jul - 04:40:47 10° WNW 04:42:40 12° NW 04:44:31 10° NNW visible
25 Jul - 11:36:20 10° NNW 11:40:22 37° ENE 11:44:34 10° SE daylight
25 Jul - 13:18:41 10° WNW 13:21:56 20° WSW 13:25:18 10° SSW daylight
